[[{"header":{"parameterUnit":"m.s-1","parameterCategory":1,"la1":30.2991,"la2":30.254,"lo1":-89.0895,"lo2":-89.0444,"dy":0.0017,"dx":0.0017,"nx":28,"ny":28,"refTime":"2024-02-26T03:00:00:Z","depth":0,"parameterNumber":2,"parameterNumberName":"U-component_of_WINDS"},"data":[0,0,0,0,0,0,0,0,0,0,0,0,0,0,0,0,0,0,0,0,0,0,0,0,0,0,0,0,0,0,0,0,0,0,0,0,0,0,0,0,0,0,0,0,0,0,0,0,0,0,0,0,0,0,0,0,0,0,-0.2943,-0.2943,0,-0.298,-0.2981,-0.2981,-0.3028,-0.3029,-0.303,-0.303,-0.3066,-0.3066,-0.3067,0,0,0,0,0,0,0,0,0,0,0,0,0,-0.291,-0.291,-0.2943,-0.2943,-0.2944,-0.298,-0.2981,-0.2981,-0.3028,-0.3029,-0.303,-0.3031,-0.3066,-0.3066,-0.3067,0,0,0,0,0,0,0,0,0,0,0,0,0,-0.2933,-0.2911,-0.2943,-0.2972,-0.2975,-0.298,-0.2981,-0.2981,-0.3028,-0.3029,-0.303,-0.3031,-0.3066,-0.3066,-0.3067,-0.3046,0,0,-0.3068,-0.3068,0,0,0,0,0,0,0,0,-0.2932,-0.2935,-0.2967,-0.297,-0.2973,-0.3001,-0.2982,-0.3003,-0.3027,-0.3007,-0.303,-0.3032,-0.3043,-0.3046,-0.305,-0.3048,-0.305,-0.3068,-0.3068,-0.3068,-0.3068,0,0,0,0,0,0,0,-0.293,-0.2933,-0.2958,-0.2967,-0.2971,-0.2982,-0.2987,-0.2986,-0.3018,-0.3009,-0.3013,-0.3017,-0.3045,-0.305,-0.3051,-0.305,-0.3068,-0.3068,-0.3069,-0.3069,-0.3033,-0.3031,0,0,0,0,0,0,-0.2925,-0.2932,-0.2956,-0.2959,-0.2955,-0.2982,-0.2987,-0.2991,-0.3019,-0.3024,-0.3016,-0.3019,-0.3048,-0.3051,-0.3053,-0.303,-0.3068,-0.3069,-0.3069,-0.3034,-0.3032,-0.3031,0,0,0,0,0,0,-0.2924,-0.2927,-0.2955,-0.2946,-0.2951,-0.2981,-0.2985,-0.2991,-0.2995,-0.3024,-0.3029,-0.3014,-0.3049,-0.3052,-0.3048,-0.3032,-0.3069,-0.3069,-0.3035,-0.3033,-0.3032,-0.2984,0,0,0,0,0,0,-0.2923,-0.2926,-0.2919,-0.2946,-0.2951,-0.295,-0.2984,-0.2991,-0.2996,-0.3,-0.3024,-0.3029,-0.305,-0.3047,-0.3048,-0.3033,-0.307,-0.3037,-0.3034,-0.3032,-0.2987,-0.2981,-0.2976,0,0,0,0,0,-0.2921,-0.2904,-0.2918,-0.2921,-0.2943,-0.2949,-0.2952,-0.2978,-0.2995,-0.2987,-0.3006,-0.3028,-0.3034,-0.3046,-0.3048,-0.3033,-0.3038,-0.3035,-0.3032,-0.299,-0.2982,-0.2976,0,0,0,0,0,0,-0.2874,-0.2908,-0.2924,-0.2915,-0.2929,-0.2957,-0.2948,-0.2969,-0.2977,-0.2981,-0.3012,-0.3017,-0.3008,-0.302,-0.3033,-0.3014,-0.3039,-0.3037,-0.3006,-0.2999,-0.2994,-0.299,-0.307,0,0,0,0,0,-0.2862,-0.2865,-0.2894,-0.2883,-0.2889,-0.2918,-0.2921,-0.294,-0.2955,-0.2961,-0.2979,-0.2992,-0.2996,-0.2999,-0.3005,-0.299,-0.2995,-0.298,-0.2975,-0.297,-0.2967,-0.2959,-0.2952,-0.3022,-0.3022,-0.3022,0,0,-0.2838,-0.2857,-0.2857,-0.2874,-0.2887,-0.2888,-0.2922,-0.2922,-0.2923,-0.2961,-0.2957,-0.2971,-0.2987,-0.2977,-0.2974,-0.2987,-0.2949,-0.2966,-0.2962,-0.2962,-0.2955,-0.2949,-0.2943,-0.302,-0.3021,-0.3021,0,0,-0.2795,-0.281,-0.2802,-0.2814,-0.2834,-0.2853,-0.2851,-0.2875,-0.2886,-0.2883,-0.2912,-0.2913,-0.2921,-0.2931,-0.2937,-0.2898,-0.2919,-0.2899,-0.2868,-0.286,-0.2855,-0.285,-0.2835,-0.2829,-0.2897,-0.2896,-0.2896,0,-0.2762,-0.2766,-0.2795,-0.2793,-0.2799,-0.2835,-0.2826,-0.2837,-0.2856,-0.286,-0.2875,-0.2885,-0.2899,-0.2891,-0.2881,-0.2886,-0.2884,-0.2896,-0.2853,-0.2849,-0.2845,-0.283,-0.2825,-0.2894,-0.2894,-0.2894,-0.2895,0,-0.2724,-0.2726,-0.2717,-0.2736,-0.2741,-0.2736,-0.2764,-0.2766,-0.2785,-0.2802,-0.2798,-0.2816,-0.2826,-0.2826,-0.2844,-0.2821,-0.2828,-0.2848,-0.2873,-0.2835,-0.2822,-0.2817,-0.289,-0.2891,-0.2892,-0.2893,0,0,-0.2651,-0.2686,-0.2682,-0.2691,-0.2715,-0.2716,-0.2712,-0.2723,-0.2723,-0.2736,-0.2732,-0.2738,-0.2757,-0.2764,-0.2783,-0.2777,-0.2743,-0.2797,-0.2798,-0.2785,-0.2717,-0.2701,-0.2694,-0.2757,-0.2756,-0.2756,-0.2715,0,-0.2611,-0.2606,-0.2633,-0.2621,-0.2622,-0.2656,-0.2653,-0.2667,-0.2682,-0.2686,-0.2703,-0.2706,-0.2731,-0.2735,-0.273,-0.2748,-0.2729,-0.2751,-0.2753,-0.2753,-0.2746,-0.2687,-0.267,-0.2631,-0.271,-0.2709,-0.2709,0,-0.2563,-0.2573,-0.2562,-0.2586,-0.2587,-0.2584,-0.2595,-0.2598,-0.2614,-0.2626,-0.2634,-0.2657,-0.2654,-0.2679,-0.2675,-0.269,-0.2692,-0.2701,-0.27,-0.27,-0.2727,-0.2684,-0.2619,-0.2612,-0.2701,-0.2702,-0.2702,0,-0.2509,-0.252,-0.2514,-0.2521,-0.2549,-0.2545,-0.2557,-0.2574,-0.2579,-0.2589,-0.2591,-0.2601,-0.2605,-0.2611,-0.2636,-0.2652,-0.2628,-0.2656,-0.2637,-0.2636,-0.2629,-0.2629,-0.2562,-0.2633,-0.2633,-0.2633,-0.2633,0,-0.246,-0.2451,-0.249,-0.2486,-0.2477,-0.2508,-0.2498,-0.2513,-0.2528,-0.2527,-0.2557,-0.2555,-0.2589,-0.259,-0.261,-0.2602,-0.2605,-0.2613,-0.2618,-0.261,-0.2608,-0.261,-0.2613,-0.2632,-0.2632,-0.2632,-0.2633,0,-0.2398,-0.2423,-0.2419,-0.2446,-0.2453,-0.2445,-0.2468,-0.2465,-0.2484,-0.2482,-0.2483,-0.2511,-0.2515,-0.2541,-0.255,-0.2563,-0.2548,-0.2559,-0.2542,-0.2545,-0.2524,-0.2525,-0.2455,-0.2447,-0.2525,-0.2524,-0.2523,0,-0.2364,-0.2358,-0.2385,-0.2387,-0.2397,-0.24,-0.2404,-0.2434,-0.2438,-0.2455,-0.245,-0.2457,-0.2463,-0.2467,-0.2488,-0.2495,-0.2506,-0.2481,-0.2507,-0.2498,-0.2504,-0.2503,-0.2502,-0.2475,-0.2474,-0.2473,-0.2472,0,-0.2302,-0.2315,-0.2321,-0.233,-0.2335,-0.2345,-0.2356,-0.2355,-0.2388,-0.2391,-0.2395,-0.24,-0.241,-0.2415,-0.2426,-0.2438,-0.2459,-0.2464,-0.246,-0.245,-0.244,-0.2444,-0.2525,-0.2465,-0.2466,-0.2466,-0.2467,-0.2467,-0.2252,-0.2247,-0.2265,-0.2271,-0.2282,-0.2292,-0.229,-0.2309,-0.2313,-0.2324,-0.2341,-0.2343,-0.2359,-0.2376,-0.2385,-0.2386,-0.2399,-0.2394,-0.2392,-0.2389,-0.2384,-0.2441,-0.2389,-0.2389,-0.2389,-0.2389,-0.2389,0,-0.2189,-0.2203,-0.2207,-0.2222,-0.2226,-0.2248,-0.2261,-0.2263,-0.2264,-0.2277,-0.2283,-0.2288,-0.2293,-0.2315,-0.2322,-0.2319,-0.2329,-0.232,-0.232,-0.2321,-0.2373,-0.2375,-0.2311,-0.2311,-0.2311,-0.2311,-0.2311,-0.2311,-0.2157,-0.2151,-0.2166,-0.2166,-0.2179,-0.2181,-0.2187,-0.2196,-0.2206,-0.221,-0.2215,-0.223,-0.2246,-0.2255,-0.2261,-0.2267,-0.2267,-0.2254,-0.2263,-0.2311,-0.2318,-0.2325,-0.2327,-0.2254,-0.2254,-0.2212,-0.2211,-0.2211]},{"header":{"parameterUnit":"m.s-1","parameterCategory":1,"la1":30.2991,"la2":30.254,"lo1":-89.0895,"lo2":-89.0444,"dy":0.0017,"dx":0.0017,"nx":28,"ny":28,"refTime":"2024-02-26T03:00:00:Z","depth":0,"parameterNumber":3,"parameterNumberName":"V-component_of_WINDS"},"data":[0,0,0,0,0,0,0,0,0,0,0,0,0,0,0,0,0,0,0,0,0,0,0,0,0,0,0,0,0,0,0,0,0,0,0,0,0,0,0,0,0,0,0,0,0,0,0,0,0,0,0,0,0,0,0,0,0,0,3.292,3.2921,0,3.3004,3.3005,3.3006,3.3005,3.3003,3.3002,3.3001,3.3085,3.3088,3.3091,0,0,0,0,0,0,0,0,0,0,0,0,0,3.2756,3.2759,3.292,3.2921,3.2922,3.3004,3.3005,3.3006,3.3005,3.3003,3.3002,3.3001,3.3084,3.3088,3.3092,0,0,0,0,0,0,0,0,0,0,0,0,0,3.2832,3.276,3.2919,3.2931,3.2933,3.3004,3.3005,3.3006,3.3005,3.3003,3.3002,3.3,3.3083,3.3087,3.3092,3.3156,0,0,3.3107,3.3109,0,0,0,0,0,0,0,0,3.2828,3.2838,3.2928,3.293,3.2933,3.2992,3.2978,3.3057,3.3005,3.2978,3.3001,3.2999,3.3055,3.3062,3.3082,3.316,3.3164,3.3108,3.3111,3.3113,3.3114,0,0,0,0,0,0,0,3.2822,3.2834,3.2953,3.293,3.2932,3.2931,3.294,3.2993,3.3025,3.298,3.298,3.299,3.3056,3.3077,3.3084,3.3165,3.3108,3.3112,3.3115,3.3117,3.3301,3.3303,0,0,0,0,0,0,3.2815,3.283,3.295,3.2955,3.2875,3.2936,3.2946,3.2975,3.3024,3.303,3.2991,3.299,3.3069,3.3078,3.3087,3.3166,3.3113,3.3117,3.312,3.3299,3.3301,3.3303,0,0,0,0,0,0,3.2812,3.2826,3.2947,3.2893,3.2908,3.294,3.2973,3.2977,3.2998,3.3033,3.3038,3.3007,3.3068,3.308,3.3139,3.3168,3.312,3.3124,3.3297,3.33,3.3302,3.3323,0,0,0,0,0,0,3.2807,3.2825,3.285,3.2893,3.2911,3.2999,3.2975,3.298,3.3007,3.3005,3.3049,3.3055,3.3068,3.3132,3.3144,3.3174,3.3128,3.3294,3.3298,3.3301,3.332,3.3326,3.3332,0,0,0,0,0,3.2801,3.2851,3.2851,3.2865,3.2943,3.3,3.301,3.3026,3.3009,3.3035,3.3057,3.3053,3.3163,3.3138,3.3152,3.3184,3.3292,3.3297,3.3301,3.3317,3.3325,3.3332,0,0,0,0,0,0,3.2809,3.2857,3.2857,3.2923,3.2958,3.3,3.3032,3.3033,3.3072,3.3069,3.3085,3.3095,3.3155,3.3175,3.3146,3.3249,3.3226,3.3233,3.3233,3.3241,3.3247,3.3241,3.3132,0,0,0,0,0,3.2819,3.2862,3.2901,3.2956,3.2973,3.3,3.3025,3.3034,3.307,3.3085,3.3111,3.3146,3.3188,3.3216,3.3256,3.3323,3.3332,3.3352,3.3358,3.3362,3.3368,3.3406,3.3415,3.3318,3.3318,3.3317,0,0,3.2839,3.287,3.2896,3.2958,3.2986,3.303,3.3012,3.3059,3.3092,3.3091,3.315,3.3171,3.321,3.3274,3.3303,3.3292,3.3397,3.3368,3.3371,3.3375,3.3411,3.342,3.3428,3.3321,3.332,3.332,0,0,3.2898,3.2926,3.2975,3.3004,3.3046,3.3064,3.3076,3.3118,3.3132,3.3191,3.3192,3.3231,3.3303,3.3332,3.3355,3.3426,3.3424,3.3439,3.347,3.3506,3.3514,3.3521,3.3547,3.3556,3.3445,3.3445,3.3445,0,3.2917,3.2984,3.3,3.3048,3.3075,3.3078,3.3127,3.3154,3.3207,3.3226,3.3213,3.3305,3.3332,3.3403,3.342,3.3439,3.3453,3.3434,3.3512,3.3519,3.3525,3.355,3.356,3.3447,3.3446,3.3446,3.3446,0,3.3006,3.3052,3.3087,3.314,3.3171,3.3219,3.3242,3.3271,3.3278,3.3296,3.3356,3.3389,3.3437,3.3454,3.346,3.3526,3.3518,3.3508,3.3486,3.3536,3.3559,3.3569,3.3449,3.3448,3.3448,3.3447,0,0,3.3072,3.3134,3.3146,3.3171,3.3219,3.3254,3.3303,3.3351,3.3376,3.3413,3.3454,3.3515,3.3507,3.3535,3.3544,3.3575,3.363,3.3562,3.3563,3.3574,3.3705,3.3712,3.3723,3.3629,3.3631,3.3632,3.3702,0,3.3136,3.3224,3.324,3.3316,3.3359,3.3363,3.3405,3.3438,3.3457,3.3496,3.3516,3.356,3.3546,3.3563,3.3594,3.3617,3.3657,3.3612,3.3667,3.3669,3.3658,3.3735,3.3743,3.3807,3.3711,3.3713,3.3714,0,3.3223,3.3264,3.3344,3.3387,3.3406,3.3444,3.3489,3.3527,3.3565,3.3576,3.3607,3.3613,3.3663,3.3638,3.3707,3.3676,3.37,3.3714,3.3717,3.3723,3.3695,3.3744,3.3828,3.3837,3.3728,3.3727,3.3726,0,3.3264,3.3339,3.3397,3.3418,3.3469,3.3495,3.3518,3.3554,3.3582,3.3622,3.364,3.3684,3.3709,3.3743,3.376,3.374,3.3828,3.3804,3.3839,3.3839,3.3858,3.3856,3.3947,3.3872,3.3872,3.3872,3.3872,0,3.3335,3.3384,3.3416,3.3452,3.3507,3.3525,3.3579,3.3601,3.3634,3.3673,3.3678,3.3715,3.3736,3.3776,3.379,3.3845,3.3856,3.3866,3.3869,3.3866,3.3865,3.3882,3.3878,3.3874,3.3874,3.3873,3.3873,0,3.339,3.3413,3.3477,3.3521,3.3533,3.3572,3.3609,3.3644,3.3663,3.3713,3.3726,3.3755,3.3803,3.3823,3.3881,3.389,3.3954,3.3954,3.3942,3.3943,3.3977,3.3973,3.4082,3.4097,3.4012,3.4012,3.4013,0,3.3434,3.3472,3.352,3.3548,3.3572,3.3615,3.3645,3.3663,3.3693,3.374,3.3769,3.3817,3.3856,3.3932,3.3958,3.4002,3.4003,3.4038,3.401,3.4006,3.4004,3.4002,3.4006,3.4043,3.4044,3.4045,3.4045,0,3.3509,3.3519,3.3561,3.3608,3.3643,3.368,3.3716,3.3738,3.3763,3.3796,3.3845,3.3876,3.3936,3.3983,3.4029,3.4051,3.4053,3.4054,3.4065,3.4062,3.4054,3.4059,3.3956,3.4052,3.4051,3.405,3.405,3.405,3.356,3.3595,3.3635,3.3682,3.3711,3.3745,3.3781,3.3805,3.3846,3.3897,3.3906,3.3958,3.3995,3.4058,3.4082,3.4123,3.4114,3.4129,3.4133,3.4137,3.4139,3.4047,3.4131,3.4131,3.4131,3.4131,3.4131,0,3.3637,3.3663,3.3706,3.3757,3.3794,3.3793,3.3833,3.3864,3.3911,3.3946,3.3985,3.4042,3.4088,3.4118,3.4165,3.4192,3.4193,3.4203,3.4202,3.4207,3.4144,3.4131,3.4201,3.4201,3.4201,3.4201,3.4201,3.4201,3.3681,3.3739,3.3754,3.3827,3.3853,3.3905,3.3929,3.396,3.3989,3.4052,3.4091,3.4111,3.4144,3.4193,3.4235,3.4243,3.426,3.427,3.4278,3.4218,3.4211,3.4204,3.4192,3.4274,3.4274,3.4337,3.4338,3.4338]}]]